Location: Unspecified
(0.0000°N, 0.0000°E)
Time: 11:25:14
(UTC+00:00)

Cosmos 1574 - Pass Details

Date: 13 June 2023
Orbit: 964 x 1003 km, 83.0° (Epoch: 30 September)

Event Time Altitude Azimuth Distance (km) Brightness Sun altitude
Rises 18:35:37 0° 206° (SSW) 3,692 9.1 -8.1°
Reaches altitude 10° 18:38:30 10° 217° (SW) 2,747 8.5 -8.8°
Maximum altitude 18:43:42 27° 273° (W) 1,788 8.3 -10.0°
Drops below altitude 10° 18:48:56 10° 329° (NNW) 2,757 9.2 -11.2°
Sets 18:51:52 0° 341° (NNW) 3,708 9.7 -11.9°
